Location: Windsor
(43.2292°N, 89.3015°W)
Time: 03:50:20
(UTC+00:00)

Tiangong - Visible Passes

Search period start: 27 January 2022 00:00
Search period end: 06 February 2022 00:00
Orbit: 382 x 387 km, 41.5° (Epoch: 26 January)

Date Brightness Start Highest point End Pass type
(mag) Time Alt. Az. Time Alt. Az. Time Alt. Az.
27 Jan 4.2 01:30:11 10° SW 01:30:28 12° SW 01:30:28 12° SW visible
28 Jan 2.7 00:30:55 10° SSW 00:33:27 22° SSE 00:33:44 22° SSE visible
28 Jan 3.4 23:32:03 10° S 23:33:52 14° SSE 23:35:41 10° ESE visible
29 Jan 2.7 01:07:11 10° WSW 01:09:08 30° SW 01:09:08 30° SW visible
30 Jan 2.2 00:07:38 10° SW 00:10:31 32° SSE 00:12:16 18° ESE visible
30 Jan 4.4 01:43:59 10° W 01:44:28 14° WSW 01:44:28 14° WSW visible
31 Jan 1.3 00:44:13 10° WSW 00:47:20 56° S 00:47:33 54° SSE visible
31 Jan 1.8 23:44:30 10° WSW 23:47:33 44° SSE 23:50:36 10° E visible
01 Feb 3.1 01:21:04 10° W 01:22:48 29° WSW 01:22:48 29° WSW visible
02 Feb 1.3 00:21:13 10° W 00:24:22 63° S 00:25:49 28° ESE visible
02 Feb 4.8 01:57:59 10° W 01:58:02 10° W 01:58:02 10° W visible
03 Feb 1.5 00:58:04 10° W 01:01:03 54° SSW 01:01:03 54° SSW visible
03 Feb 1.4 23:58:09 10° W 00:01:17 63° S 00:04:06 12° ESE visible
04 Feb 3.8 01:35:01 10° W 01:36:18 19° WSW 01:36:18 19° WSW visible
05 Feb 2.0 00:34:59 10° W 00:38:01 43° SSW 00:39:23 26° SE visible
